STARLINK-3153 (49431 NORAD) Tracking and Keplerian Element Data

This shows tracking and keplerian element data for the satellite.

Feedback or suggestion? Click here.




ElementValue
Catalog49431
NameSTARLINK-3153
Epoch Orbit365
Epoch Day15.91668981
Epoch Year2022
RAAN185.3556
Inclination53.2174
Eccentricity0.000154
Argument of Perigee45.8349
Mean Anonmoly21.6795
Mean Motion15.24802985
Decay Rate-0.00654712
L11 49431U 21104Z 22015.91668981 -.00654712 00000+0 -28061-1 0 9991
L22 49431 53.2174 185.3556 0001540 45.8349 21.6795 15.24802985 3659

Live tracking and technical data element details for STARLINK-3153 (NORAD 49431). STARLINK-3153 can be tracked NOW for your location showing map with azimuth and elevation plus other details from your city location.

Track the satellite on the map from your city or location and see movement details for azimuth, elevation, latitude, longitude, range, height, and movement on the map or in text.







IsCatalogInMostPopularTable: catalog: 49431, numindb: 7
Update: records affected: 1



GetName: 49431 STARLINK-3153

Hit Count: updated at: Thu, 20 Jan 2022 18:00:42 GMT